| time (UTC) | temp F | wind direction | speed knots | gust knots | rain 1hr in | rain 24hr in | rain mn in | humidity % | barometer mb |
| 20260508211002 | 67 | 187 | 0.9 | 1.7 | 0.00 | 0.00 | 0.00 | 64 | 1016.4 |
| 20260508210002 | 67 | 187 | 1.7 | 2.6 | 0.00 | 0.00 | 0.00 | 62 | 1016.6 |
| 20260508205002 | 67 | 187 | 2.6 | 5.2 | 0.00 | 0.00 | 0.00 | 59 | 1016.8 |
| 20260508204002 | 68 | 107 | 1.7 | 4.3 | 0.00 | 0.00 | 0.00 | 56 | 1016.8 |
| 20260508203003 | 68 | 202 | 2.6 | 4.3 | 0.00 | 0.00 | 0.00 | 60 | 1016.9 |
| 20260508202002 | 68 | 101 | 0.9 | 2.6 | 0.00 | 0.00 | 0.00 | 58 | 1016.8 |
| 20260508201002 | 68 | 147 | 1.7 | 4.3 | 0.00 | 0.00 | 0.00 | 59 | 1016.6 |
| 20260508200003 | 68 | 185 | 1.7 | 4.3 | 0.00 | 0.00 | 0.00 | 58 | 1016.8 |
| 20260508195002 | 68 | 186 | 0.9 | 2.6 | 0.00 | 0.00 | 0.00 | 55 | 1017.2 |
| 20260508194003 | 69 | 186 | 1.7 | 4.3 | 0.00 | 0.00 | 0.00 | 57 | 1017.3 |
| 20260508193003 | 69 | 188 | 3.5 | 8.7 | 0.00 | 0.00 | 0.00 | 58 | 1017.8 |
| 20260508192002 | 69 | 185 | 4.3 | 6.1 | 0.00 | 0.00 | 0.00 | 56 | 1017.6 |
| 20260508191002 | 69 | 192 | 1.7 | 5.2 | 0.00 | 0.00 | 0.00 | 57 | 1017.5 |
| 20260508190003 | 69 | 215 | 3.5 | 7.0 | 0.00 | 0.00 | 0.00 | 55 | 1017.7 |
| 20260508185002 | 69 | 200 | 0.9 | 7.8 | 0.00 | 0.00 | 0.00 | 53 | 1017.9 |
| 20260508184002 | 68 | 219 | 1.7 | 4.3 | 0.00 | 0.00 | 0.00 | 55 | 1018.1 |
| 20260508183002 | 68 | 213 | 1.7 | 7.0 | 0.00 | 0.00 | 0.00 | 52 | 1018.2 |
| 20260508182002 | 68 | 237 | 4.3 | 6.1 | 0.00 | 0.00 | 0.00 | 53 | 1018.4 |
| 20260508181002 | 68 | 208 | 3.5 | 6.1 | 0.00 | 0.00 | 0.00 | 60 | 1018.5 |
| 20260508180002 | 68 | 226 | 4.3 | 7.8 | 0.00 | 0.00 | 0.00 | 59 | 1018.5 |
| 20260508175002 | 67 | 193 | 1.7 | 5.2 | 0.00 | 0.00 | 0.00 | 62 | 1018.5 |
| 20260508174002 | 66 | 170 | 2.6 | 4.3 | 0.00 | 0.00 | 0.00 | 66 | 1018.7 |
| 20260508173002 | 66 | 205 | 4.3 | 7.0 | 0.00 | 0.00 | 0.00 | 62 | 1018.8 |
| 20260508172003 | 66 | 169 | 1.7 | 7.8 | 0.00 | 0.00 | 0.00 | 64 | 1018.9 |
| 20260508171002 | 65 | 223 | 1.7 | 7.0 | 0.00 | 0.00 | 0.00 | 65 | 1019.0 |
| 20260508170002 | 65 | 216 | 3.5 | 7.8 | 0.00 | 0.00 | 0.00 | 62 | 1019.2 |
| 20260508165002 | 65 | 215 | 3.5 | 6.1 | 0.00 | 0.00 | 0.00 | 67 | 1019.4 |
| 20260508164002 | 65 | 217 | 2.6 | 8.7 | 0.00 | 0.00 | 0.00 | 67 | 1019.5 |
| 20260508152003 | 63 | 241 | 1.7 | 5.2 | 0.00 | 0.00 | 0.00 | 68 | 1020.4 |
| 20260508151002 | 62 | 346 | 1.7 | 6.1 | 0.00 | 0.00 | 0.00 | 66 | 1020.6 |
| 20260508150002 | 62 | 117 | 0.9 | 5.2 | 0.00 | 0.00 | 0.00 | 66 | 1020.6 |
| 20260508145003 | 62 | 296 | 1.7 | 2.6 | 0.00 | 0.00 | 0.00 | 67 | 1020.6 |
| 20260508144003 | 61 | 59 | 0.9 | 7.8 | 0.00 | 0.00 | 0.00 | 68 | 1020.4 |
| 20260508143003 | 61 | 49 | 1.7 | 7.8 | 0.00 | 0.00 | 0.00 | 64 | 1020.4 |
| 20260508132003 | 55 | 271 | 0.0 | 0.0 | 0.00 | 0.00 | 0.00 | 85 | 1020.4 |
| 20260508121002 | 47 | 57 | 0.0 | 0.9 | 0.00 | 0.05 | 0.00 | 87 | 1020.1 |
| 20260508120002 | 46 | 159 | 0.0 | 0.0 | 0.00 | 0.07 | 0.00 | 87 | 1019.9 |
| 20260508115002 | 46 | 151 | 0.0 | 0.9 | 0.00 | 0.12 | 0.00 | 87 | 1019.6 |
| 20260508114003 | 45 | 211 | 0.0 | 0.9 | 0.00 | 0.17 | 0.00 | 87 | 1019.5 |
| 20260508113002 | 45 | 205 | 0.0 | 0.0 | 0.00 | 0.19 | 0.00 | 87 | 1019.3 |
| 20260508112002 | 44 | 205 | 0.0 | 0.0 | 0.00 | 0.19 | 0.00 | 86 | 1019.2 |
| 20260508111003 | 44 | 216 | 0.0 | 0.0 | 0.00 | 0.19 | 0.00 | 86 | 1018.9 |
| 20260508110002 | 44 | 294 | 0.0 | 1.7 | 0.00 | 0.19 | 0.00 | 86 | 1018.8 |
| 20260508105002 | 44 | 294 | 0.0 | 0.9 | 0.00 | 0.19 | 0.00 | 86 | 1018.5 |
| 20260508104002 | 44 | 294 | 0.0 | 0.9 | 0.00 | 0.19 | 0.00 | 86 | 1018.3 |
| 20260508103003 | 44 | 294 | 0.0 | 0.0 | 0.00 | 0.19 | 0.00 | 86 | 1018.0 |
| 20260508102002 | 44 | 294 | 0.0 | 0.0 | 0.00 | 0.22 | 0.00 | 86 | 1017.9 |
| 20260508101002 | 44 | 294 | 0.0 | 0.0 | 0.00 | 0.48 | 0.00 | 86 | 1017.7 |
| 20260508100002 | 45 | 294 | 0.0 | 0.0 | 0.00 | 0.50 | 0.00 | 86 | 1017.7 |
| 20260508095002 | 45 | 294 | 0.0 | 0.0 | 0.00 | 0.53 | 0.00 | 86 | 1017.6 |
| 20260508094002 | 45 | 294 | 0.0 | 0.0 | 0.00 | 0.58 | 0.00 | 86 | 1017.5 |
| 20260508093002 | 45 | 294 | 0.0 | 0.0 | 0.00 | 0.60 | 0.00 | 86 | 1017.6 |
| 20260508092002 | 45 | 294 | 0.0 | 0.9 | 0.00 | 0.60 | 0.00 | 86 | 1017.5 |
| 20260508080002 | 47 | 294 | 0.0 | 1.7 | 0.00 | 0.74 | 0.00 | 86 | 1016.9 |
| 20260508075002 | 47 | 294 | 0.9 | 1.7 | 0.00 | 0.79 | 0.00 | 86 | 1016.8 |
| 20260508074003 | 47 | 294 | 0.0 | 0.9 | 0.00 | 0.79 | 0.00 | 86 | 1017.0 |
| 20260508073003 | 48 | 294 | 0.0 | 2.6 | 0.00 | 0.81 | 0.00 | 86 | 1016.9 |
| 20260508072002 | 48 | 294 | 0.0 | 1.7 | 0.00 | 0.88 | 0.00 | 86 | 1017.0 |
| 20260508071002 | 49 | 294 | 0.0 | 0.9 | 0.00 | 0.92 | 0.00 | 85 | 1017.0 |
| 20260508070004 | 49 | 294 | 0.0 | 0.9 | 0.00 | 0.94 | 0.00 | 85 | 1016.9 |
| 20260508045002 | 51 | 306 | 0.0 | 2.6 | 0.00 | 1.03 | 0.00 | 86 | 1017.3 |
| 20260508044002 | 50 | 306 | 0.9 | 2.6 | 0.00 | 1.04 | 0.00 | 85 | 1017.1 |
| 20260508043002 | 50 | 305 | 0.0 | 1.7 | 0.00 | 1.05 | 0.00 | 85 | 1017.1 |
| 20260508042003 | 50 | 305 | 0.9 | 1.7 | 0.00 | 1.05 | 0.00 | 85 | 1017.1 |
| 20260508041003 | 50 | 305 | 0.0 | 0.9 | 0.00 | 1.05 | 0.00 | 85 | 1016.9 |
| 20260508040003 | 51 | 305 | 0.0 | 0.9 | 0.00 | 1.05 | 0.00 | 85 | 1016.8 |
| 20260508035003 | 51 | 305 | 0.0 | 0.9 | 0.00 | 1.05 | 1.05 | 85 | 1016.9 |
| 20260508012002 | 56 | 305 | 0.0 | 0.0 | 0.00 | 1.26 | 1.05 | 83 | 1015.8 |
| 20260508011003 | 56 | 305 | 0.0 | 1.7 | 0.00 | 1.26 | 1.05 | 83 | 1015.8 |
| 20260508010003 | 57 | 305 | 0.0 | 1.7 | 0.00 | 1.26 | 1.05 | 82 | 1015.5 |
| 20260508005002 | 58 | 305 | 0.0 | 2.6 | 0.00 | 1.27 | 1.05 | 82 | 1015.4 |
| 20260508004002 | 58 | 305 | 0.9 | 1.7 | 0.00 | 1.33 | 1.05 | 81 | 1015.4 |
| 20260508002002 | 60 | 305 | 0.0 | 0.0 | 0.00 | 1.42 | 1.05 | 77 | 1015.1 |
| 20260508001002 | 60 | 305 | 0.0 | 1.7 | 0.00 | 1.43 | 1.05 | 76 | 1015.0 |
| 20260508000003 | 60 | 305 | 0.0 | 2.6 | 0.00 | 1.44 | 1.05 | 76 | 1014.9 |
| 20260507235003 | 61 | 302 | 1.7 | 7.0 | 0.00 | 1.61 | 1.05 | 75 | 1015.0 |
| 20260507234003 | 61 | 273 | 2.6 | 5.2 | 0.00 | 1.61 | 1.05 | 75 | 1014.7 |
| 20260507233003 | 61 | 340 | 1.7 | 2.6 | 0.00 | 1.61 | 1.05 | 76 | 1014.6 |
| 20260507232002 | 61 | 341 | 1.7 | 7.0 | 0.00 | 1.61 | 1.05 | 75 | 1014.6 |
| 20260507231002 | 61 | 314 | 4.3 | 10.4 | 0.00 | 1.61 | 1.05 | 74 | 1014.6 |
| 20260507230003 | 61 | 321 | 7.0 | 10.4 | 0.00 | 1.62 | 1.05 | 74 | 1014.6 |
| 20260507225003 | 62 | 291 | 4.3 | 7.8 | 0.00 | 1.62 | 1.05 | 75 | 1014.5 |
| 20260507224003 | 62 | 324 | 4.3 | 10.4 | 0.00 | 1.62 | 1.05 | 75 | 1014.4 |
| 20260507223002 | 61 | 344 | 6.1 | 12.2 | 0.00 | 1.62 | 1.05 | 75 | 1014.3 |